Home   Weather   Paterson   Past weeks

Flag for USA Past Weather in Paterson, New Jersey, USA — Yesterday and Last 2 Weeks

Now
82 °F

Passing clouds.


Feels Like: 82 °F
Forecast: 64 / 83 °F
Wind: 21 mph from Northwest

Location: Essex County Airport

Current Time: Apr 29, 2017 at 5:34:47 pm

Latest Report: Apr 29, 2017 at 4:53 pm


Visibility: 10 mi

Pressure: 30.01 "Hg

Humidity: 44%

Dew Point: 58 °F

Location of PatersonLocation

Past Weather in Paterson — Graph

°F

Paterson Temperature Yesterday

Maximum temperature yesterday: 84 °F (at 2:53 pm)
Minimum temperature yesterday: 58 °F (at 12:32 am)
Average temperature yesterday: 68 °F

High & Low Weather Summary for the Past Weeks

 TemperatureHumidityPressure
High85 °F (Apr 16, 2:53 pm)100% (Apr 25, 11:30 pm)30.54 "Hg (Apr 25, 11:30 pm)
Low40 °F (Apr 15, 6:53 am)18% (Apr 28, 5:53 pm)29.76 "Hg (Apr 26, 8:25 am)
Average58 °F72%30.06 "Hg
* Reported Apr 14 2:53 pm — Apr 29 2:53 pm, Paterson, Weather by CustomWeather, © 2017

Note: Actual official high and low records may vary slightly from our data, if they occured in-between our weather recording intervals... More about our weather records

Advertising

Paterson Weather History for the Previous 24 Hours

Scroll right to see more
 ConditionsComfort  
Time TempWeatherWind HumidityBarometerVisibility
2:53 pm
Sat, Apr 29
84 °FScattered clouds.12 mph45%29.99 "Hg10 mi
1:53 pm83 °FSunny.14 mph46%29.96 "Hg10 mi
12:53 pm80 °FSunny.13 mph52%29.96 "Hg10 mi
11:53 am79 °FSunny.12 mph52%30.00 "Hg10 mi
10:53 am79 °FScattered clouds.14 mph52%30.01 "Hg10 mi
9:53 am74 °FSunny.9 mph71%30.04 "Hg9 mi
8:53 am69 °FSunny.5 mph76%30.03 "Hg10 mi
7:53 am64 °FSunny.No wind87%29.98 "Hg10 mi
6:53 am62 °FSunny.No wind90%29.99 "Hg10 mi
5:53 am61 °FClear.3 mph90%29.98 "Hg10 mi
4:53 am63 °FPassing clouds.No wind75%29.99 "Hg10 mi
3:53 am64 °FPartly cloudy.No wind68%30.05 "Hg10 mi
2:53 am65 °FLight rain. Passing clouds.No wind66%30.05 "Hg10 mi
1:53 am65 °FClear.No wind56%30.05 "Hg10 mi
12:53 am65 °FClear.6 mph56%30.06 "Hg10 mi
11:53 pm
Fri, Apr 28
65 °FClear.5 mph59%30.06 "Hg10 mi
10:53 pm65 °FClear.No wind56%30.06 "Hg10 mi
9:53 pm68 °FClear.No wind47%30.05 "Hg10 mi
8:53 pm75 °FClear.No wind31%30.04 "Hg10 mi
7:53 pm80 °FClear.5 mph23%30.01 "Hg10 mi
6:53 pm83 °FSunny.5 mph24%29.98 "Hg10 mi
5:53 pm84 °FSunny.8 mph18%29.98 "Hg10 mi
Weather by CustomWeather, © 2017

See weather overviewHow to use our weather pages